◎アポロ型小惑星 (1862) Apolloの接近    [From JSGA Web News]



  すでに天文年鑑2005年(p.234)で紹介したとおり,アポロ型特異小惑星の総称と

なっている1932年にハイデルベルグで発見されたこの小惑星 (1862) Apollo(= 19

32 HA)が,今年11月6日21時UT頃,地球に 0.0752 AUまで接近し,13等級まで明る

くなる.この頃,小惑星は,日々運動約 7゚の高速で空を移動し,その最接近時を我

が国で観測できる.なお,この小惑星が,発見後にもっとも地球に接近したのは 19

80年11月13日の 0.0555 AUであった.金星には,1950年6月26日に0.0099 AUまで接

近している.

  次の軌道は,1930年以後に2005年6月までに行なわれた19回の衝での429個の観測

から決定したもの.



(1862) Apollo

Epoch 2005 Aug. 18.0 TT = JDT 2453600.5                 Nakano

M 343.08730              (2000.0)            P               Q

n   0.55224675     Peri.  285.80381     +0.78008985     +0.62230866

a   1.4713430      Node    35.78291     -0.52327512     +0.70565080

e   0.5598984      Incl.    6.35722     -0.34299122     +0.33880508

P   1.78           H   16.0           G   0.09           U   0



  接近までの予報位置を掲げる.美星からの予報位置であるが,我が国全域で使用

できる.なお,10月下旬までは,小惑星の背面(太陽光が当たってない)を見るこ

とになるために光学観測できない.



OBSERVATORY: 300 133.544570.823371+0.565729Bisei Spaceguard Center-BATTeRS      

        

 

Date      Time (UT)  R. A. (2000)  Decl. Delta     R    Mag. Daily Motion  Obj. h  A   Sun h  A  

Year Mo.D. h  m  s  h  m  s     。  ,  "   AU      AU      V      ,    。       。     。      。      。

2005 11 3 16 00 00 11 23 22.8 +17 33 38  0.08007  0.951 15.1  357.8/314.6  - 8.8 242    -65.0  224 

2005 11 3 17 00 00 11 22 38.2 +17 44 05  0.07994  0.952 15.1  360.9/314.2  + 2.7 250    -54.9  245 

2005 11 3 18 00 00 11 21 52.9 +17 54 34  0.07981  0.952 15.1  363.8/313.9  +14.9 258    -43.2  258 

2005 11 3 19 00 00 11 21 06.9 +18 05 04  0.07968  0.953 15.1  366.3/313.6  +27.4 266    -31.0  268 

2005 11 3 20 00 00 11 20 20.4 +18 15 35  0.07955  0.953 15.0  368.6/313.2  +40.0 275    -18.6  276 

2005 11 3 21 00 00 11 19 33.2 +18 26 06  0.07943  0.953 15.0  370.4/312.9  +52.5 285    - 6.5  284 

2005 11 3 22 00 00 11 18 45.5 +18 36 37  0.07930  0.954 15.0  371.6/312.7  +64.1 302    + 5.2  293 

                               .                   .         .        .       . 

    .        .             .       

2005 11 4 16 00 00 11 04 18.6 +21 46 21  0.07751  0.961 14.6  381.5/313.0  - 2.0 242    -65.3  224 

2005 11 4 17 00 00 11 03 28.5 +21 57 10  0.07742  0.961 14.6  384.4/312.6  + 9.6 250    -55.1  245 

2005 11 4 18 00 00 11 02 37.5 +22 08 01  0.07732  0.962 14.6  387.0/312.3  +21.7 257    -43.4  258 

2005 11 4 19 00 00 11 01 45.9 +22 18 51  0.07723  0.962 14.5  389.2/311.9  +34.2 265    -31.1  268 

2005 11 4 20 00 00 11 00 53.7 +22 29 40  0.07714  0.962 14.5  391.1/311.6  +46.9 273    -18.8  276 

2005 11 4 21 00 00 11 00 00.8 +22 40 29  0.07706  0.963 14.5  392.4/311.3  +59.4 284    - 6.7  284 

2005 11 4 22 00 00 10 59 07.5 +22 51 15  0.07697  0.963 14.5  393.0/311.0  +71.1 304    + 5.1  293 

                               .                   .         .        .       . 

    .        .             .       

2005 11 5 15 00 00 10 43 56.7 +25 52 13  0.07594  0.970 14.2  395.5/311.1  - 5.5 233    -71.2  188 

2005 11 5 16 00 00 10 43 01.4 +26 03 03  0.07588  0.970 14.2  398.1/310.8  + 5.2 242    -65.5  225 

2005 11 5 17 00 00 10 42 05.4 +26 13 52  0.07583  0.971 14.1  400.6/310.4  +16.8 249    -55.3  246 

2005 11 5 18 00 00 10 41 08.7 +26 24 41  0.07578  0.971 14.1  402.8/310.1  +28.9 256    -43.6  259 

2005 11 5 19 00 00 10 40 11.2 +26 35 29  0.07572  0.972 14.1  404.5/309.7  +41.3 263    -31.3  268 

2005 11 5 20 00 00 10 39 13.1 +26 46 14  0.07568  0.972 14.1  405.8/309.3  +54.0 271    -19.0  277 

2005 11 5 21 00 00 10 38 14.4 +26 56 56  0.07563  0.972 14.1  406.5/309.0  +66.6 282    - 6.8  285 

2005 11 5 22 00 00 10 37 15.3 +27 07 35  0.07559  0.973 14.1  406.4/308.7  +78.3 306    + 4.9  293 

                               .                   .         .        .       . 

    .        .             .       

2005 11 6 14 00 00 10 21 31.2 +29 53 11  0.07527  0.979 13.8  400.7/308.6  - 8.0 225    -68.5  146 

2005 11 6 15 00 00 10 20 30.9 +30 03 35  0.07525  0.980 13.8  403.1/308.4  + 1.8 234    -71.5  188 

2005 11 6 16 00 00 10 19 29.9 +30 14 00  0.07524  0.980 13.8  405.2/308.0  +12.6 242    -65.8  225 

2005 11 6 17 00 00 10 18 28.2 +30 24 23  0.07523  0.980 13.8  407.4/307.6  +24.1 249    -55.5  246 

2005 11 6 18 00 00 10 17 25.8 +30 34 44  0.07522  0.981 13.8  409.0/307.2  +36.1 255    -43.7  259 

2005 11 6 19 00 00 10 16 22.6 +30 45 01  0.07521  0.981 13.8  410.0/306.8  +48.5 261    -31.5  269 

2005 11 6 20 00 00 10 15 18.8 +30 55 15  0.07520  0.982 13.7  410.7/306.4  +61.1 267    -19.1  277 

2005 11 6 21 00 00 10 14 14.5 +31 05 24  0.07520  0.982 13.7  410.6/306.1  +73.7 277    - 7.0  285 

2005 11 6 22 00 00 10 13 09.9 +31 15 28  0.07520  0.982 13.7  409.8/305.8  +85.5 316    + 4.7  293 

                               .                   .         .        .       . 

    .        .             .       

2005 11 7 14 00 00 09 56 04.8 +33 49 23  0.07555  0.989 13.5  398.3/305.3  - 0.8 227    -68.8  145 

2005 11 7 15 00 00 09 54 59.4 +33 58 57  0.07557  0.989 13.5  400.3/305.0  + 9.1 235    -71.8  188 

2005 11 7 16 00 00 09 53 53.3 +34 08 30  0.07560  0.990 13.5  402.1/304.6  +19.9 242    -66.0  226 

2005 11 7 17 00 00 09 52 46.5 +34 17 59  0.07563  0.990 13.5  403.7/304.2  +31.4 248    -55.7  247 

2005 11 7 18 00 00 09 51 39.0 +34 27 25  0.07566  0.990 13.5  404.7/303.7  +43.3 253    -43.9  259 

2005 11 7 19 00 00 09 50 30.9 +34 36 46  0.07570  0.991 13.5  405.1/303.3  +55.6 258    -31.6  269 

2005 11 7 20 00 00 09 49 22.2 +34 46 01  0.07573  0.991 13.5  405.0/302.9  +68.0 262    -19.3  277 

2005 11 7 21 00 00 09 48 13.1 +34 55 10  0.07578  0.992 13.4  404.2/302.5  +80.6 264    - 7.2  285 

2005 11 7 22 00 00 09 47 03.7 +35 04 12  0.07582  0.992 13.4  402.6/302.2  +86.8 101    + 4.5  294 

                               .                   .         .        .       . 

    .        .             .       

2005 11 8 13 00 00 09 30 02.2 +37 11 41  0.07675  0.998 13.3  384.4/301.6  - 2.6 220    -59.7  119 

2005 11 8 14 00 00 09 28 53.6 +37 20 03  0.07682  0.998 13.3  386.2/301.3  + 6.3 228    -69.0  145 

2005 11 8 15 00 00 09 27 44.3 +37 28 24  0.07688  0.999 13.3  387.9/301.0  +16.3 235    -72.1  188 

2005 11 8 16 00 00 09 26 34.3 +37 36 41  0.07695  0.999 13.3  389.1/300.6  +27.1 241    -66.3  226 

2005 11 8 17 00 00 09 25 23.7 +37 44 55  0.07702  1.000 13.3  390.2/300.1  +38.5 246    -55.9  247 

2005 11 8 18 00 00 09 24 12.4 +37 53 03  0.07709  1.000 13.3  390.6/299.7  +50.3 250    -44.1  260 

2005 11 8 19 00 00 09 23 00.6 +38 01 05  0.07717  1.000 13.3  390.4/299.2  +62.3 253    -31.8  269 

2005 11 8 20 00 00 09 21 48.3 +38 09 00  0.07725  1.001 13.2  389.7/298.8  +74.4 251    -19.5  277 

2005 11 8 21 00 00 09 20 35.8 +38 16 47  0.07733  1.001 13.2  388.3/298.4  +85.3 216    - 7.4  285 

2005 11 8 22 00 00 09 19 23.1 +38 24 27  0.07742  1.002 13.2  386.1/298.0  +79.8 116    + 4.3  294 



上の軌道からの残差は次のとおり.



Residuals in seconds of arc (or two decimals in units of degrees)

301213 690  0.1-  0.2+    961209 801  0.8-  0.1-    030127 704  0.4-  0.7+  

301214 690  2.2+  2.5-    961209 801  0.1-  0.1+    030128 704  0.3+  0.2+  

301216 690 (3.9-  1.4+)   961211 046  1.2-  0.5-    030128 704  0.2-  0.3-  

320424 024(22.0+  0.2-)   961211 046  0.1+  0.4-    030128 704  0.2+  0.6+  

320424 024(0.04+ 0.03+)X  961211 046  0.3-  0.6-    030128 704  0.1-  0.2-  

320424 024(26.0+  1.2-)   961212 046  0.2-  0.1-    030130 704  1.6+  0.3-  

320427 024  2.1+  0.2-    961212 046  0.5-  0.3-    030130 704  1.8+  0.3+  

320427 024  2.5+  1.9+    961212 046  0.4-  0.2-    030130 704 (2.0+  0.3-) 

320427 024 (0.2-  4.8+)   961212 046  0.2-  0.2-    030130 704  1.0+  0.0   

320429 801  0.4+  0.9+    961221 046  0.2+  0.1+    030225 608  0.7+  0.3-  

320430 801 (3.6+  1.6-)   961221 046  0.3+  0.3+    030225 608  1.1+  0.4-  

320430 024(19.7-  0.7+)   961221 046  0.2-  0.4+    030225 608  0.2+  0.4-  

320430 024  1.3-  0.2+    961227 046  0.0   0.1-    030225 240  0.1-  0.2+  

320430 024(11.8+  1.2+)   961227 046  0.5-  0.2+    030226 240  0.3+  0.1+  

320430 012  0.9+  0.6-    961229 046  0.1+  0.2+    030226 240  0.5+  0.0   

320430 012 (4.2+  1.0-)   961229 046  0.1+  0.3+    030226 240  0.1+  0.0   

320501 024  0.7+  1.0+    961229 046  0.2+  0.3+    030305 704  1.1+  0.4-  

320502 754  1.1+  0.5-    961229 046  0.4-  0.6+    030305 704  1.5+  0.4-  

320502 012  1.5-  0.2+    970112 118  0.1+  0.4-    030305 704  1.3+  0.4-  

320502 012  1.0+  0.2+    970112 118  0.1+  0.5-    030305 704  1.0+  0.3-  

320503 801  1.9-  0.9-    970121 118  1.3+  1.1-    030306 704  1.0+  0.2-  

320503 754 (5.5+  4.1+)   970121 118 (0.0   2.0-)   030306 704  0.5-  1.3-  

320503 024(26.1-  0.5+)   970130 704  1.0+  0.7+    030306 704  1.1+  0.7-  

320503 024(22.1-  0.8+)   970130 704  0.7+  0.0     030306 704  0.7+  0.5-  

320503 024(13.1-  0.0 )   980221 557  0.7+  0.4-    030306 704  0.3+  0.1-  

320503 024 (5.8-  1.4-)   980221 557  0.2-  0.5-    030307 644  0.8+  0.1-  

320503 024  0.0   0.7-    980221 557  0.6+  0.9-    030307 644  0.4+  0.5-  

320503 024 (7.2+  0.4+)   980303 711  0.0   0.3-    030307 644  0.1+  0.3+  

320505 012 (4.1+  3.1-)   980303 711  0.2-  0.2-    030313 644  0.2+  0.2+  

320505 024 (3.4+  0.8+)   980304 711  0.0   0.2-    030313 644  0.3+  0.3+  

320505 012  1.4-  1.2-    980304 711  0.1+  0.2-    030313 644  0.1-  0.5+  

320505 012 (3.9-  0.9-)   980312 118  1.1-  1.3-    030321 198  0.7+  1.0+  

320506 801  2.4-  1.3+    980312 118  0.7-  1.3-    030321 198  0.6+  0.7+  

320506 012  1.4-  1.0+    980319 104  0.6-  1.1-    030321 198  0.4+  0.5+  

320507 078  2.5+  0.5+    980319 104  0.4-  1.2-    040130 703  0.1+  1.0+  

320507 078  2.5-  1.7-    980319 104  0.7-  1.1-    040130 703  0.9-  1.4+  

320508 024(60.0- 11.7-)   980322 699  1.0-  0.4+    040130 703  0.9-  0.1+  

320509 754 (3.0-  0.1-)   980322 699  0.5-  0.7+    040130 703  0.1+  0.9+  

320509 027  0.5-  0.7-    980322 699  1.0-  0.2+    040202 699  0.8-  1.0+  

